Lihue, HI (96766)

1:46 AM HST on August 04, 2015 (GMT -1000)
Puupilo | | Change Station
CLOSE
Current Station
Personal Weather Station
Location: Kapaa, HI
Elevation: 469 ft
Nearby Weather Stations

Elev 469 ft 22.06 °N, 159.39 °W | Updated 12 seconds ago

Overcast
Overcast
72.5 °F
Feels Like 72.5 °F
N
0.0
Wind Variable Wind from East

Today
High -- | Low -- °F
--% Chance of Precip.
Yesterday
High -- | Low -- °F
Precip. -- in
6:11 AM 7:15 PM
Waning Gibbous, 78% visible
Pressure 29.91 in
Visibility 10.0 miles
Clouds Few 1400 ft
Mostly Cloudy 5000 ft
Overcast 6500 ft
Dew Point 71 °F
Humidity 96%
Rainfall 0.02 in
Snow Depth Not available.
UV 0 out of 12
Pollen Not available.
Air Quality Not available.
Flu Activity Not available.
METAR PHLI 041053Z 02009KT 10SM FEW014 BKN050 OVC065 25/22 A2992 RMK AO2 SLP128 T02500217

More Conditions Fewer Conditions

Pressure 29.91 in
Visibility 10.0 miles
Clouds Few 1400 ft
Mostly Cloudy 5000 ft
Overcast 6500 ft
Dew Point 71 °F
Humidity 96%
Rainfall 0.02 in
Snow Depth Not available.
UV 0 out of 12
Pollen Not available.
Air Quality Not available.
Flu Activity Not available.
METAR PHLI 041053Z 02009KT 10SM FEW014 BKN050 OVC065 25/22 A2992 RMK AO2 SLP128 T02500217

More Conditions Fewer Conditions

10-Day Weather Forecast

×

Almanac

Astronomy

Aug. 04, 2015 Rise Set
Actual Time
Civil Twilight
Nautical Twilight
Astronomical Twilight
Moon
Length of Visible Light
Length of Day
Tomorrow will be .
, % of the Moon is Illuminated

Today's Extremes

State Highs State Lows

Community

WunderPhotos

Upload Photos

1,843,900 photos uploaded!

WunderBlogs® & News

Nearby

Air Quality

  Air Quality AQ Index Pollutant
Not available.

Snow Depth

Station Depth Elevation

Earthquake Activity

City Distance Mag. Time & Date
Minimum magnitude displayed is 2.5.

Coastal Water Temperatures

Place Temperature

Stations

Nearby Weather Stations

Station Location Temp. Windchill Dew Point Humidity Wind Precip. Elev Updated Type